Location: Habighorst
(52.7089°N, 10.2278°E)
Time: 23:42:53
(UTC+00:00)

IGS 5A - Pass Details

Date: 13 January 2026
Orbit: 551 x 554 km, 97.4° (Epoch: 8 January)

Event Time Altitude Azimuth Distance (km) Brightness Sun altitude
Rises 06:03:04 0° 7° (N) 2,743 6.8 -11.8°
Reaches altitude 10° 06:05:19 10° 359° (N) 1,844 5.8 -11.5°
Maximum altitude 06:08:59 36° 293° (WNW) 882 3.8 -11.0°
Drops below altitude 10° 06:12:37 10° 226° (SW) 1,830 5.7 -10.4°
Sets 06:14:51 0° 218° (SW) 2,720 6.7 -10.1°
